This is the latest recevied weather packets stored in our database for station/object OH2HCY. If no packets are shown the sender has not sent any weather packets the latest 10 day(s).
| Time | Temp. | Humidity | Pressure | Rain* | Wind** | Luminosity | Snow |
|---|---|---|---|---|---|---|---|
| 1787771005 | 15° C | 84% | 1021.7 hPa | - | - | - | - |
| 1787770475 | 15.56° C | 83% | 1021.6 hPa | - | - | - | - |
| 1787769940 | 15.56° C | 82% | 1021.5 hPa | - | - | - | - |
| 1787769398 | 15.56° C | 82% | 1021.4 hPa | - | - | - | - |
| 1787768830 | 16.11° C | 81% | 1021.2 hPa | - | - | - | - |
| 1787768272 | 16.67° C | 79% | 1021 hPa | - | - | - | - |
| 1787767680 | 17.22° C | 77% | 1020.8 hPa | - | - | - | - |
| 1787767159 | 17.22° C | 75% | 1020.6 hPa | - | - | - | - |
| 1787766650 | 17.78° C | 74% | 1020.4 hPa | - | - | - | - |
| 1787766130 | 17.78° C | 73% | 1020.2 hPa | - | - | - | - |
| 1787765615 | 18.89° C | 70% | 1019.9 hPa | - | - | - | - |
| 1787765050 | 18.89° C | 69% | 1019.7 hPa | - | - | - | - |
| 1787764500 | 19.44° C | 66% | 1019.4 hPa | - | - | - | - |
| 1787763980 | 20° C | 65% | 1019.3 hPa | - | - | - | - |
| 1787763475 | 20° C | 64% | 1019.2 hPa | - | - | - | - |
| 1787762960 | 19.44° C | 64% | 1019.3 hPa | - | - | - | - |
| 1787762440 | 19.44° C | 63% | 1019.2 hPa | - | - | - | - |
| 1787761880 | 20° C | 62% | 1019.2 hPa | - | - | - | - |
| 1787761360 | 20° C | 63% | 1019.1 hPa | - | - | - | - |
| 1787760839 | 20° C | 63% | 1019.1 hPa | - | - | - | - |
| 1787760310 | 20° C | 62% | 1019 hPa | - | - | - | - |
| 1787759787 | 20° C | 60% | 1018.9 hPa | - | - | - | - |
| 1787759254 | 20° C | 62% | 1018.9 hPa | - | - | - | - |
| 1787758746 | 20° C | 60% | 1019 hPa | - | - | - | - |
| 1787758190 | 20° C | 62% | 1019 hPa | - | - | - | - |
* Rain since midnight (hover to see other rain measurements)
** Current wind speed in m/s (hover to see current wind gust speed)